Location: Falniów
(50.3639°N, 19.9642°E)
Time: 18:53:01
(UTC+00:00)

SL-08 R/B - Pass Details

Date: 25 April 2026
Orbit: 667 x 728 km, 98.5° (Epoch: 13 May)

Event Time Altitude Azimuth Distance (km) Brightness Sun altitude
Rises 20:32:33 0° 6° (N) 3,163 7.5 -20.6°
Reaches altitude 10° 20:35:10 10° 354° (N) 2,238 6.8 -20.8°
Maximum altitude 20:39:07 25° 300° (WNW) 1,449 5.6 -21.1°
Drops below altitude 10° 20:43:03 10° 246° (WSW) 2,218 6.0 -21.4°
Sets 20:45:38 0° 233° (SW) 3,129 6.6 -21.6°
